Weather History for Manitowish Waters, Manitowish, WI

Change the Weather History Date:

Thursday, March 27, 2014

  Actual Average (KARV) Record (KARV)
Temperature  
Mean Temperature 30 °F -  
Max Temperature 34 °F 41 °F 73 °F (1910)
Min Temperature 25 °F 19 °F -15 °F (1927)
Degree Days  
Heating Degree Days 36    
Moisture  
Dew Point 28 °F    
Average Humidity 91    
Maximum Humidity 100    
Minimum Humidity 66    
Precipitation  
Precipitation 0.36 in - - ()
Sea Level Pressure  
Sea Level Pressure 29.58 in    
Wind  
Wind Speed 9 mph (SSE)    
Max Wind Speed 15 mph    
Max Gust Speed 22 mph    
Visibility 6 miles    
Events Rain , Snow    
Averages and records for this station are not official NWS values.
T = Trace of Precipitation, MM = Missing Value Source: NWS Daily Summary

Daily Weather History Graph

Daily Weather History Graph

Search for Another Location

Airport:

Trip Planner

Search our weather history database for the weather conditions in past years. The results will help you decide how hot, cold, wet, or windy it might be!

Date:

Astronomy

Mar. 27, 2014 Rise Set
Actual Time 6:48 AM CDT 7:21 PM CDT
Civil Twilight 6:18 AM CDT 7:51 PM CDT
Nautical Twilight 5:43 AM CDT 8:27 PM CDT
Astronomical Twilight 5:06 AM CDT 9:04 PM CDT
Moon 4:51 AM CDT (3/27) 3:59 PM CDT (3/27)
Length of Visible Light 13h 32m
Length of Day
12h 32m
Waning Crescent, 13% of the Moon is Illuminated
Mar 27
Waning Crescent
Mar 30
New
Apr 7
First Quarter
Apr 15
Full
Apr 22
Last Quarter

Hourly Weather History & Observations

Time (CDT) Temp. Windchill Dew Point Humidity Pressure Visibility Wind Dir Wind Speed Gust Speed Precip Events Conditions
12:15 AM 27.3 °F 16.1 °F 17.4 °F 66% 29.72 in 10.0 mi SSE 13.8 mph - N/A   Overcast
12:35 AM 27.5 °F 16.8 °F 17.8 °F 67% 29.72 in 10.0 mi SSE 12.7 mph - N/A   Overcast
12:55 AM 27.5 °F 16.3 °F 18.7 °F 69% 29.70 in 10.0 mi South 13.8 mph 21.9 mph N/A   Overcast
1:15 AM 27.9 °F 17.8 °F 19.4 °F 71% 29.69 in 10.0 mi SSE 11.5 mph 20.7 mph N/A   Overcast
1:35 AM 27.5 °F 16.8 °F 20.3 °F 74% 29.68 in 10.0 mi South 12.7 mph 17.3 mph N/A   Overcast
1:55 AM 27.9 °F 16.3 °F 21.0 °F 75% 29.67 in 10.0 mi South 15.0 mph - N/A   Overcast
2:15 AM 28.2 °F 16.8 °F 21.7 °F 77% 29.67 in 10.0 mi South 15.0 mph - N/A   Overcast
2:35 AM 28.4 °F 17.5 °F 22.1 °F 77% 29.66 in 10.0 mi South 13.8 mph 20.7 mph N/A   Overcast
2:55 AM 28.9 °F 17.7 °F 22.6 °F 77% 29.65 in 10.0 mi South 15.0 mph 19.6 mph N/A   Overcast
3:15 AM 29.1 °F 20.0 °F 22.6 °F 77% 29.64 in 10.0 mi South 10.4 mph 18.4 mph N/A   Overcast
3:35 AM 29.3 °F 19.6 °F 22.8 °F 77% 29.63 in 10.0 mi South 11.5 mph 18.4 mph N/A   Overcast
3:55 AM 29.7 °F 20.7 °F 23.0 °F 76% 29.63 in 10.0 mi South 10.4 mph - N/A   Overcast
4:15 AM 29.5 °F 21.1 °F 23.2 °F 77% 29.62 in 10.0 mi South 9.2 mph 16.1 mph N/A   Overcast
4:35 AM 29.8 °F 20.9 °F 23.4 °F 77% 29.62 in 10.0 mi South 10.4 mph - N/A   Overcast
4:55 AM 30.0 °F 21.7 °F 23.5 °F 77% 29.61 in 10.0 mi South 9.2 mph - N/A   Overcast
5:15 AM 30.0 °F 21.1 °F 23.7 °F 77% 29.61 in 10.0 mi South 10.4 mph - N/A   Overcast
5:35 AM 30.2 °F 21.9 °F 23.9 °F 77% 29.60 in 10.0 mi South 9.2 mph 16.1 mph N/A   Overcast
5:55 AM 30.2 °F 21.3 °F 24.6 °F 80% 29.60 in 10.0 mi South 10.4 mph - N/A   Overcast
6:15 AM 30.2 °F 22.6 °F 25.0 °F 81% 29.60 in 10.0 mi South 8.1 mph - N/A   Overcast
6:35 AM 30.2 °F 22.6 °F 25.7 °F 83% 29.60 in 10.0 mi South 8.1 mph 16.1 mph N/A   Overcast
6:55 AM 30.2 °F 21.9 °F 26.2 °F 85% 29.60 in 10.0 mi South 9.2 mph - N/A   Overcast
7:15 AM 30.2 °F 21.3 °F 26.4 °F 86% 29.60 in 10.0 mi South 10.4 mph - N/A   Overcast
7:35 AM 30.2 °F 21.3 °F 26.6 °F 86% 29.60 in 10.0 mi South 10.4 mph - N/A   Overcast
7:55 AM 30.2 °F 21.9 °F 26.6 °F 86% 29.60 in 10.0 mi SSE 9.2 mph - N/A   Overcast
8:15 AM 30.2 °F 21.9 °F 27.3 °F 89% 29.60 in 10.0 mi South 9.2 mph - N/A   Overcast
8:35 AM 30.2 °F 21.9 °F 28.0 °F 92% 29.60 in 7.0 mi South 9.2 mph - N/A   Overcast
8:55 AM 30.2 °F 22.6 °F 28.4 °F 93% 29.59 in 5.0 mi South 8.1 mph - N/A   Overcast
9:15 AM 30.2 °F 22.6 °F 29.3 °F 96% 29.59 in 4.0 mi SSE 8.1 mph - N/A   Overcast
9:35 AM 30.6 °F 23.1 °F 29.8 °F 97% 29.58 in 3.0 mi South 8.1 mph - N/A   Overcast
9:55 AM 31.1 °F 23.1 °F 30.6 °F 98% 29.58 in 2.5 mi South 9.2 mph - N/A   Light Freezing Rain
10:15 AM 31.5 °F 24.2 °F 30.9 °F 98% 29.58 in 2.0 mi South 8.1 mph - N/A   Light Freezing Rain
10:35 AM 32.0 °F 25.6 °F 31.5 °F 98% 29.58 in 2.5 mi South 6.9 mph - N/A   Overcast
10:55 AM 32.0 °F 24.8 °F 31.6 °F 99% 29.58 in 2.5 mi South 8.1 mph - N/A   Overcast
11:15 AM 32.0 °F 24.8 °F 31.8 °F 99% 29.58 in 2.5 mi South 8.1 mph - N/A   Overcast
11:35 AM 32.2 °F 25.0 °F 31.8 °F 99% 29.58 in 2.5 mi South 8.1 mph - N/A   Overcast
11:55 AM 32.5 °F 26.2 °F 32.0 °F 98% 29.57 in 3.0 mi South 6.9 mph - N/A   Overcast
12:15 PM 32.9 °F 26.7 °F 32.0 °F 96% 29.56 in 5.0 mi South 6.9 mph - N/A   Overcast
12:35 PM 33.3 °F 27.1 °F 32.0 °F 95% 29.55 in 7.0 mi South 6.9 mph - N/A   Overcast
12:55 PM 33.6 °F 28.4 °F 32.0 °F 94% 29.54 in 10.0 mi South 5.8 mph - N/A   Overcast
1:15 PM 33.4 °F 28.1 °F 32.0 °F 94% 29.54 in 7.0 mi South 5.8 mph - N/A   Overcast
1:35 PM 33.8 °F 27.7 °F 32.0 °F 93% 29.54 in 7.0 mi South 6.9 mph - N/A   Overcast
1:55 PM 34.0 °F 29.8 °F 32.2 °F 93% 29.52 in 7.0 mi South 4.6 mph - N/A   Overcast
2:15 PM 34.0 °F 28.8 °F 32.2 °F 93% 29.52 in 7.0 mi SSE 5.8 mph - N/A   Overcast
2:35 PM 34.0 °F 28.8 °F 32.4 °F 94% 29.53 in 7.0 mi South 5.8 mph - N/A   Overcast
2:55 PM 33.8 °F - 32.5 °F 95% 29.52 in 2.5 mi Calm Calm - N/A Rain Light Rain
3:15 PM 33.4 °F - 33.1 °F 99% 29.51 in 1.8 mi Calm Calm - N/A   Heavy Drizzle
3:35 PM 32.9 °F - 32.9 °F 100% 29.51 in 1.5 mi Calm Calm - 0.01 in Rain Light Rain
3:55 PM 32.5 °F - 32.5 °F 100% 29.51 in 1.2 mi Calm Calm - 0.02 in Rain Light Rain
4:15 PM 32.0 °F - 32.0 °F 100% 29.51 in 0.5 mi Calm Calm - 0.04 in Snow Snow
4:35 PM 32.0 °F - 32.0 °F 100% 29.51 in 0.5 mi Calm Calm - 0.07 in Snow Light Snow
4:55 PM 32.0 °F - 32.0 °F 100% 29.51 in 0.5 mi Calm Calm - 0.10 in Snow Light Snow
5:15 PM 32.0 °F - 32.0 °F 100% 29.52 in 0.8 mi Calm Calm - 0.03 in Snow Light Snow
5:35 PM 32.0 °F - 32.0 °F 100% 29.52 in 0.5 mi Calm Calm - 0.07 in Snow Snow
5:55 PM 32.0 °F - 32.0 °F 100% 29.51 in 0.5 mi Calm Calm - 0.11 in Snow Snow
6:15 PM 32.0 °F 28.7 °F 32.0 °F 100% 29.51 in 0.8 mi NE 3.5 mph - 0.04 in Snow Light Snow
6:35 PM 32.0 °F 28.7 °F 32.0 °F 100% 29.51 in 0.8 mi NNE 3.5 mph - 0.06 in Snow Light Snow
6:55 PM 32.0 °F 28.7 °F 32.0 °F 100% 29.51 in 0.8 mi NE 3.5 mph - 0.08 in Snow Light Snow
7:15 PM 32.0 °F - 32.0 °F 100% 29.51 in 0.8 mi Calm Calm - 0.01 in Snow Light Snow
7:35 PM 32.0 °F 27.5 °F 32.0 °F 100% 29.51 in 1.5 mi NNE 4.6 mph - 0.03 in Snow Light Snow
7:55 PM 32.0 °F 28.7 °F 32.0 °F 100% 29.51 in 2.5 mi NNE 3.5 mph - 0.04 in Snow Light Snow
8:15 PM 32.0 °F 28.7 °F 32.0 °F 100% 29.51 in 3.0 mi NNE 3.5 mph - 0.01 in Snow Light Snow
8:35 PM 31.8 °F 27.3 °F 31.8 °F 100% 29.52 in 4.0 mi NNE 4.6 mph - 0.01 in Snow Light Snow
8:55 PM 30.9 °F 25.2 °F 30.7 °F 99% 29.52 in 4.0 mi North 5.8 mph - 0.01 in Snow Light Snow
9:15 PM 29.7 °F 23.7 °F 29.1 °F 98% 29.53 in 4.0 mi North 5.8 mph - N/A Snow Light Snow
9:35 PM 28.8 °F 20.9 °F 28.2 °F 98% 29.55 in 5.0 mi North 8.1 mph - N/A Snow Light Snow
9:55 PM 28.2 °F 21.0 °F 27.3 °F 96% 29.56 in 4.0 mi North 6.9 mph - N/A Snow Light Snow
10:15 PM 27.7 °F 20.4 °F 26.6 °F 96% 29.57 in 5.0 mi North 6.9 mph - N/A Snow Light Snow
10:35 PM 27.0 °F 20.5 °F 25.7 °F 95% 29.58 in 7.0 mi North 5.8 mph - N/A   Overcast
10:55 PM 26.1 °F 16.8 °F 24.8 °F 95% 29.59 in 7.0 mi North 9.2 mph - N/A   Overcast
11:15 PM 25.7 °F 16.4 °F 24.3 °F 94% 29.58 in 10.0 mi North 9.2 mph - N/A   Overcast
11:35 PM 25.3 °F 16.0 °F 24.1 °F 95% 29.58 in 10.0 mi North 9.2 mph - N/A   Overcast
11:55 PM 25.2 °F 15.7 °F 24.1 °F 96% 29.59 in 10.0 mi North 9.2 mph - N/A   Overcast